AirNav   ATP
 
 1040 users online  

KTQH Tahlequah Municipal Airport
Tahlequah, Oklahoma, USA

GOING TO TAHLEQUAH?


FAA INFORMATION EFFECTIVE 29 MARCH 2018

Location

FAA Identifier: TQH
Lat/Long: 35-55-49.0000N / 095-00-16.3000W
35-55.816667N / 095-00.271667W
35.9302778 / -95.0045278
(estimated)
Elevation: 874.1 ft. / 266.4 m (surveyed)
Variation: 05E (1995)
From city: 2 miles NW of TAHLEQUAH, OK
Time zone: UTC -5 (UTC -6 during Standard Time)
Zip code: 74464

Airport Operations

Airport use: Open to the public
Activation date: 10/1948
Control tower: no
ARTCC: MEMPHIS CENTER
FSS: MC ALESTER FLIGHT SERVICE STATION
NOTAMs facility: TQH (NOTAM-D service available)
Attendance: MON-SAT 0800-1700
Wind indicator: yes
Segmented circle: yes
Lights: ACTVT MIRL RY 17/35 AND REIL RY 17 & 35 - CTAF. PAPI RYS 17 & 35 OPER CONTINUOUSLY.
Beacon: white-green (lighted land airport)
Operates sunset to sunrise.

Airport Communications

CTAF/UNICOM: 122.8
WX AWOS-3: 118.425 (918-453-2729)
  • APCH/DEP SERVICE PROVIDED BY MEMPHIS ARTCC ON FREQS 126.1/269.0 (FAYETTEVILLE RCAG).

Nearby radio navigation aids

VOR radial/distance  VOR name  Freq  Var
DAKr253/39.8DRAKE VOR/DME115.2507E

 
NDB name  Hdg/Dist  Freq  Var  ID
TAHLEQUAHat field21505ETQH - --.- ....
SILOAM SPRINGS234/29.528404ESLG ... .-.. --.

Airport Services

Fuel available: 100LL JET-A
Parking: hangars and tiedowns
Airframe service: MINOR
Powerplant service: MINOR
Bottled oxygen: NONE
Bulk oxygen: NONE

Runway Information

Runway 17/35

Dimensions: 5001 x 75 ft. / 1524 x 23 m
Surface: asphalt, in good condition
Weight bearing capacity: 
Single wheel: 26.0
Runway edge lights: medium intensity
RUNWAY 17  RUNWAY 35
Latitude: 35-56.228988N35-55.405447N
Longitude: 095-00.251395W095-00.290892W
Elevation: 869.4 ft.851.2 ft.
Gradient: 0.8%0.4% UP
Traffic pattern: leftleft
Runway heading: 177 magnetic, 182 true357 magnetic, 002 true
Markings: nonprecision, in good conditionnonprecision, in good condition
Visual slope indicator: 4-light PAPI on left (3.00 degrees glide path)4-light PAPI on left (3.00 degrees glide path)
Runway end identifier lights: yesyes
Touchdown point: yes, no lightsyes, no lights
Obstructions: 60 ft. trees, 1375 ft. from runway, 350 ft. left of centerline, 19:1 slope to clear15 ft. trees, 318 ft. from runway, 8:1 slope to clear

Airport Ownership and Management from official FAA records

Ownership: Publicly-owned
Owner: CITY OF TAHLEQUAH
CITY HALL, 111 S. CHEROKEE
TAHLEQUAH, OK 74464
Phone 918-456-0561
Manager: GREG BLISH
2100 AIRPORT PARKWAY, 111 S. CHEROKEE
TAHLEQUAH, OK 74464
Phone (918) 822-0772

Airport Operational Statistics

Aircraft based on the field: 55
Single engine airplanes: 47
Multi engine airplanes: 7
Jet airplanes: 1
    
Aircraft operations: avg 42/day *
56% local general aviation
44% transient general aviation
* for 12-month period ending 17 June 2015

Additional Remarks

A51-17 THLD DSPLCD 357 FT INDEFLY.

Instrument Procedures

NOTE: All procedures below are presented as PDF files. If you need a reader for these files, you should download the free Adobe Reader.

NOT FOR NAVIGATION. Please procure official charts for flight.
FAA instrument procedures published for use from 29 March 2018 at 0901Z to 26 April 2018 at 0900Z.

 
IAPs - Instrument Approach Procedures
RNAV (GPS) RWY 17   download (212KB)
RNAV (GPS) RWY 35   download (232KB)
NDB RWY 17   download (156KB)
NOTE: Special Alternate Minimums apply   download (21KB)
NOTE: Special Take-Off Minimums/Departure Procedures apply   download (131KB)

Other nearby airports with instrument procedures:

H68 - Hefner-Easley Airport (17 nm W)
H71 - Mid-America Industrial Airport (24 nm NW)
KMKO - Muskogee-Davis Regional Airport (24 nm SW)
KSLG - Smith Field Airport (29 nm NE)
KJSV - Sallisaw Municipal Airport (31 nm S)
 
Loc | Ops | Rwys | IFR | FBO | Links
Com | Nav | Svcs | Stats | Notes

AirNav Hotels Sweepstakes
 
Area around KTQH (Tahlequah Municipal Airport)
 
Road maps at: MapQuest Bing Google
 
Aerial photo
WARNING: Photo may not be current or correct
Aerial photo of KTQH (Tahlequah Municipal Airport)
Photo by Renee LaCombe
Photo taken 07-Nov-2013
looking north.

Do you have a better or more recent aerial photo of Tahlequah Municipal Airport that you would like to share? If so, please send us your photo.

 
Sectional chart

 
Airport distance calculator
Flying to Tahlequah Municipal Airport? Find the distance to fly.

From to KTQH

Sunrise and sunset
Times for 21-Apr-2018
 Local
(UTC-5)
 Zulu
(UTC)
Morning civil twilight06:1311:13
Sunrise06:4011:40
Sunset19:5700:57
Evening civil twilight20:2401:24

Current date and time
Zulu (UTC)  21-Apr-2018 16:14:45
Local (UTC-5)  21-Apr-2018 11:14:45
 
METAR
KTQH 211555Z AUTO 12006KT 10SM CLR 16/05 A3012 RMK AO2
TAF
KXNA 
40nm NE 
211136Z 2112/2212 09011KT P6SM -SHRA BKN100 FM211600 10007KT P6SM -SHRA OVC080 FM212000 10007KT 5SM -RA OVC030 FM220600 07006KT 6SM -SHRA BR VCTS OVC008CB
KFYV 
41nm E 
211136Z 2112/2212 08010KT P6SM -SHRA BKN100 FM211600 10007KT P6SM -SHRA OVC080 FM212000 10007KT 5SM -RA OVC030 FM220600 08005KT 6SM -RA BR VCTS OVC008CB
KTUL 
46nm W 
211136Z 2112/2212 10008KT P6SM -SHRA VCTS OVC070CB FM211500 08007KT 5SM -RA BR VCTS SCT025 OVC050CB FM212100 05010KT 4SM -RA VCTS OVC015CB FM220300 02006KT 6SM -SHRA BR BKN008 OVC012
KFSM 
47nm SE 
211136Z 2112/2212 09008KT P6SM -SHRA SCT050 BKN120 FM211800 10007KT P6SM -SHRA VCTS OVC050CB FM212000 10007KT 5SM -RA VCTS OVC030CB FM220700 07005KT 6SM -SHRA BR VCTS OVC008CB
KRVS 
48nm W 
211136Z 2112/2212 10007KT P6SM -SHRA VCTS OVC070CB FM211500 07007KT 5SM -RA BR VCTS SCT025 OVC050CB FM212100 05010KT 4SM -RA VCTS OVC015CB FM220300 02006KT 6SM -SHRA BR BKN008 OVC012
NOTAMs
Click for the latest NOTAMs
NOTAMs are issued by the DoD/FAA and will open in a separate window not controlled by AirNav.

 

 
 

Would you like to see your business listed on this page?

 If your business provides an interesting product or service to pilots, flight crews, aircraft, or users of the Tahlequah Municipal Airport, you should consider listing it here.  To start the listing process, click on the button below
 
Add a business
 

Other Pages about Tahlequah Municipal Airport

www.cityoftahlequah.com/...
 
Update a link
 
Copyright © AirNav, LLC. All rights reserved. Privacy Policy  Contact